Location: Chevoux
(46.3801°N, 4.9476°E)
Time: 21:21:15
(UTC+00:00)

Helios 1A Rocket - Pass Details

Date: 28 January 2021
Orbit: 562 x 586 km, 98.3° (Epoch: 04 March)

Event Time Altitude Azimuth Distance (km) Brightness Sun altitude
Rises 19:00:11 0° 183° (S) 2,800 6.5 -24.4°
Reaches altitude 10° 19:02:25 10° 190° (S) 1,906 5.7 -24.7°
Maximum altitude 19:06:20 40° 261° (W) 867 4.2 -25.4°
Drops below altitude 10° 19:10:16 10° 332° (NNW) 1,918 5.9 -26.1°
Sets 19:12:32 0° 340° (NNW) 2,822 6.7 -26.5°
